period_start,C,m1,H,J0,J1,J2,J3,J4,J5,JA,JB,JC,JD,JJ,JK,JN,#
2017-07-21 00:01:37,0.00,1.94,0.00,19.59,23.70,26.74,14.19,46.13,1020.53,2046.82,2855.04,2585.00,2954.99,600.03,605.30,52.90,0000 0000 0000 0000 000000
2017-07-21 00:06:39,-0.00,1.94,0.00,19.59,23.70,26.75,14.19,46.02,1020.53,2046.76,2855.01,2584.99,2954.97,600.33,605.77,52.95,0000 0000 0000 0000 000000
2017-07-21 00:11:40,0.01,1.94,0.00,19.58,23.70,26.74,14.08,45.99,1020.53,2046.78,2855.00,2584.97,2954.95,598.96,604.32,53.00,0000 0000 0000 0000 000000
2017-07-21 00:16:41,0.00,1.94,0.00,19.59,23.70,26.72,14.26,46.21,1020.52,2046.82,2854.99,2584.97,2954.89,600.18,605.38,53.05,0000 0000 0000 0000 000000
2017-07-21 00:21:42,0.01,1.94,0.00,19.59,23.70,26.74,14.24,46.00,1020.52,2046.86,2854.97,2584.91,2954.46,600.31,605.66,53.10,0000 0000 0000 0000 000000
2017-07-21 00:26:43,0.01,1.94,0.00,19.59,23.70,26.73,14.22,46.23,1020.52,2046.80,2854.94,2584.79,2954.10,600.04,605.33,53.15,0000 0000 0000 0000 000000
2017-07-21 00:31:44,0.01,1.94,0.00,19.59,23.70,26.74,14.21,46.08,1020.46,2046.92,2854.84,2584.60,2954.03,600.18,605.43,53.20,0000 0000 0000 0000 000000
2017-07-21 00:36:46,0.02,1.94,0.00,19.59,23.70,26.74,14.18,45.93,1020.36,2046.96,2854.60,2584.37,2954.02,600.16,605.35,53.25,0000 0000 0000 0000 000000
2017-07-21 00:41:48,0.01,1.94,0.00,19.60,23.70,26.74,14.19,46.02,1020.29,2046.97,2854.17,2584.16,2954.02,600.88,605.98,53.30,0000 0000 0000 0000 000000
2017-07-21 00:46:49,0.00,1.94,0.00,19.62,23.70,26.74,14.15,45.98,1020.09,2046.91,2854.00,2584.01,2953.99,599.39,604.45,53.35,0000 0000 0000 0000 000000
2017-07-21 00:51:50,0.01,1.94,0.00,19.62,23.70,26.76,14.18,45.97,1020.05,2046.94,2853.99,2584.00,2953.98,600.16,605.14,53.40,0000 0000 0000 0000 000000
2017-07-21 00:56:51,0.01,1.94,0.00,19.64,23.70,26.75,14.16,46.02,1020.04,2046.97,2853.99,2584.00,2953.94,599.91,605.06,53.45,0000 0000 0000 0000 000000
2017-07-21 01:01:53,0.01,1.94,0.00,19.63,23.70,26.74,14.14,45.91,1020.04,2046.95,2853.97,2583.99,2953.69,600.17,605.11,53.50,0000 0000 0000 0000 000000
2017-07-21 01:06:54,0.00,1.94,0.00,19.64,23.70,26.73,14.13,45.92,1020.04,2046.97,2853.90,2583.97,2953.25,599.98,604.83,53.55,0000 0000 0000 0000 000000
2017-07-21 01:11:55,0.01,1.94,0.00,19.64,23.70,26.75,14.15,45.88,1020.03,2046.96,2853.61,2583.97,2953.07,599.87,604.69,53.60,0000 0000 0000 0000 000000
2017-07-21 01:16:56,0.00,1.94,0.00,19.66,23.71,26.76,14.13,46.00,1020.02,2046.96,2853.18,2583.90,2953.01,599.54,604.49,53.65,0000 0000 0000 0000 000000
2017-07-21 01:21:57,0.01,1.94,0.00,19.67,23.72,26.79,14.15,46.02,1020.03,2046.94,2853.02,2583.44,2953.00,599.64,604.60,53.70,0000 0000 0000 0000 000000
2017-07-21 01:26:58,0.01,1.94,0.00,19.69,23.72,26.78,14.27,46.08,1020.03,2046.94,2853.01,2583.14,2953.00,600.34,605.14,53.75,0000 0000 0000 0000 000000
2017-07-21 01:32:00,-0.01,1.95,0.00,19.69,23.72,26.77,14.14,45.87,1020.03,2046.85,2853.00,2583.03,2952.97,599.77,604.69,53.80,0000 0000 0000 0000 000000
2017-07-21 01:37:01,0.02,1.94,0.00,19.69,23.72,26.78,14.21,45.88,1020.02,2046.90,2852.99,2583.01,2952.92,600.25,605.12,53.85,0000 0000 0000 0000 000000
2017-07-21 01:42:02,0.01,1.95,0.00,19.69,23.73,26.77,14.14,46.03,1020.03,2046.90,2852.88,2583.00,2952.32,599.96,604.67,53.91,0000 0000 0000 0000 000000
2017-07-21 01:47:03,0.01,1.95,0.00,19.71,23.74,26.78,14.17,46.05,1019.98,2046.92,2852.51,2582.99,2952.06,600.30,605.10,53.96,0000 0000 0000 0000 000000
2017-07-21 01:52:05,-0.01,1.95,0.00,19.72,23.75,26.80,14.11,45.84,1019.95,2046.73,2852.08,2582.98,2952.01,599.93,604.79,54.01,0000 0000 0000 0000 000000
2017-07-21 01:57:06,0.01,1.95,0.00,19.73,23.75,26.79,14.09,46.03,1019.99,2046.63,2852.01,2582.76,2951.99,599.33,603.96,54.06,0000 0000 0000 0000 000000
2017-07-21 02:02:07,0.02,1.95,0.00,19.75,23.76,26.81,14.21,46.04,1020.00,2046.83,2852.00,2582.55,2951.99,600.68,605.35,54.11,0000 0000 0000 0000 000000
2017-07-21 02:07:09,0.01,1.95,0.00,19.77,23.77,26.83,14.14,45.99,1019.99,2046.84,2851.98,2582.14,2951.96,600.13,604.72,54.16,0000 0000 0000 0000 000000
2017-07-21 02:12:10,0.00,1.95,0.00,19.77,23.77,26.83,14.12,45.85,1019.99,2046.72,2851.84,2582.02,2951.61,599.87,604.41,54.21,0000 0000 0000 0000 000000
2017-07-21 02:17:11,-0.01,1.95,0.00,19.79,23.78,26.83,14.10,45.91,1019.97,2046.65,2851.52,2582.00,2951.16,600.22,604.86,54.26,0000 0000 0000 0000 000000
2017-07-21 02:22:12,0.01,1.95,0.00,19.82,23.80,26.83,14.15,45.88,1020.01,2046.49,2851.12,2582.00,2951.02,599.91,604.44,54.31,0000 0000 0000 0000 000000
2017-07-21 02:27:13,-0.01,1.95,0.00,19.84,23.80,26.84,14.11,45.92,1020.02,2046.40,2851.02,2581.99,2951.00,599.80,604.47,54.36,0000 0000 0000 0000 000000
2017-07-21 02:32:15,-0.01,1.95,0.00,19.84,23.82,26.85,14.11,45.79,1020.02,2046.28,2850.99,2581.96,2950.99,599.57,604.06,54.41,0000 0000 0000 0000 000000
2017-07-21 02:37:16,0.02,1.95,0.00,19.87,23.82,26.87,14.12,45.80,1019.99,2046.26,2850.98,2581.72,2950.97,600.09,604.58,54.46,0000 0000 0000 0000 000000
2017-07-21 02:42:18,0.00,1.95,0.00,19.89,23.85,26.88,14.16,45.84,1019.90,2046.15,2850.93,2581.26,2950.75,600.32,604.65,54.51,0000 0000 0000 0000 000000
2017-07-21 02:47:19,0.02,1.95,0.00,19.91,23.85,26.90,14.10,45.70,1019.70,2046.04,2850.29,2581.02,2950.08,599.70,603.84,54.56,0000 0000 0000 0000 000000
2017-07-21 02:52:20,0.00,1.95,0.00,19.92,23.87,26.88,14.17,45.88,1019.68,2046.03,2850.03,2581.00,2950.01,600.35,604.42,54.61,0000 0000 0000 0000 000000
2017-07-21 02:57:21,-0.00,1.95,0.00,19.94,23.88,26.90,14.14,45.98,1019.60,2046.01,2850.00,2580.99,2949.99,600.23,604.19,54.66,0000 0000 0000 0000 000000
2017-07-21 03:02:23,0.00,1.95,0.00,19.98,23.90,26.93,14.20,45.92,1019.58,2046.01,2849.98,2580.94,2949.98,600.25,604.18,54.71,0000 0000 0000 0000 000000
2017-07-21 03:07:24,0.05,1.95,0.00,20.01,23.91,26.92,14.18,46.01,1019.56,2046.00,2849.52,2580.42,2949.50,600.22,604.06,54.76,0000 0000 0000 0000 000000
2017-07-21 03:12:25,0.01,1.95,0.00,20.03,23.93,26.97,14.17,45.70,1019.55,2046.00,2849.16,2580.08,2949.08,600.38,604.14,54.81,0000 0000 0000 0000 000000
2017-07-21 03:17:26,0.00,1.95,0.00,20.05,23.95,26.96,14.11,45.91,1019.54,2046.00,2849.01,2580.00,2949.00,599.87,603.64,54.86,0000 0000 0000 0000 000000
2017-07-21 03:22:28,0.00,1.95,0.00,20.09,23.97,26.97,14.03,45.82,1019.54,2046.00,2849.00,2580.00,2949.00,599.43,603.29,54.91,0000 0000 0000 0000 000000
2017-07-21 03:27:29,0.00,1.95,0.00,20.13,23.99,26.97,14.11,45.91,1019.49,2046.00,2848.94,2579.98,2948.92,600.12,603.71,54.97,0000 0000 0000 0000 000000
2017-07-21 03:32:31,0.03,1.96,0.00,20.15,24.02,27.01,14.17,45.88,1019.45,2045.99,2848.47,2579.70,2948.31,600.34,603.75,55.02,0000 0000 0000 0000 000000
2017-07-21 03:37:32,0.02,1.96,0.00,20.20,24.04,27.02,14.13,45.85,1019.32,2045.95,2848.12,2579.13,2948.02,599.56,602.95,55.07,0000 0000 0000 0000 000000
2017-07-21 03:42:33,-0.00,1.96,0.00,20.23,24.06,27.04,14.10,45.89,1019.15,2045.91,2848.01,2579.01,2948.00,599.69,602.85,55.12,0000 0000 0000 0000 000000
2017-07-21 03:47:34,-0.00,1.96,0.00,20.27,24.09,27.07,14.08,45.73,1019.15,2045.81,2848.00,2579.00,2947.94,599.71,602.84,55.17,0000 0000 0000 0000 000000
2017-07-21 03:52:36,-0.00,1.96,0.00,20.30,24.12,27.08,14.14,45.92,1019.17,2045.45,2847.76,2578.96,2947.36,600.41,603.42,55.22,0000 0000 0000 0000 000000
2017-07-21 03:57:37,-0.01,1.96,0.00,20.33,24.15,27.09,14.11,45.77,1019.10,2045.17,2847.30,2578.68,2947.02,599.94,602.75,55.27,0000 0000 0000 0000 000000
2017-07-21 04:02:38,0.01,1.96,0.00,20.37,24.18,27.10,14.04,45.96,1019.08,2045.04,2847.03,2578.10,2947.00,599.79,602.67,55.32,0000 0000 0000 0000 000000
2017-07-21 04:07:39,-0.00,1.96,0.00,20.41,24.21,27.11,14.05,45.82,1019.07,2045.01,2846.99,2578.00,2946.96,599.70,602.48,55.37,0000 0000 0000 0000 000000
2017-07-21 04:12:41,0.02,1.96,0.00,20.46,24.24,27.12,14.05,45.77,1019.06,2045.00,2846.83,2577.98,2946.39,599.86,602.47,55.42,0000 0000 0000 0000 000000
2017-07-21 04:17:42,0.02,1.96,0.00,20.49,24.28,27.15,14.12,45.91,1019.05,2044.99,2846.17,2577.72,2946.02,600.42,602.93,55.47,0000 0000 0000 0000 000000
2017-07-21 04:22:43,0.01,1.96,0.00,20.52,24.31,27.19,14.03,45.83,1019.00,2044.98,2845.99,2577.10,2945.98,600.35,602.76,55.52,0000 0000 0000 0000 000000
2017-07-21 04:27:45,0.01,1.96,0.00,20.55,24.34,27.22,14.08,45.91,1018.89,2044.94,2845.95,2577.00,2945.64,600.02,602.30,55.57,0000 0000 0000 0000 000000
2017-07-21 04:32:46,-0.01,1.96,0.00,20.59,24.38,27.23,14.04,45.92,1018.73,2044.72,2845.48,2576.99,2945.08,600.06,602.20,55.62,0000 0000 0000 0000 000000
2017-07-21 04:37:47,-0.03,1.96,0.00,20.64,24.41,27.22,14.07,45.86,1018.88,2044.37,2845.05,2576.87,2945.00,599.87,602.00,55.67,0000 0000 0000 0000 000000
2017-07-21 04:42:48,0.00,1.96,0.00,20.69,24.44,27.25,13.91,45.83,1019.01,2044.05,2845.00,2576.28,2944.98,599.72,601.82,55.72,0000 0000 0000 0000 000000
2017-07-21 04:47:49,0.01,1.96,0.00,20.72,24.48,27.30,14.05,45.85,1019.01,2044.01,2844.95,2576.04,2944.57,599.97,602.04,55.77,0000 0000 0000 0000 000000
2017-07-21 04:52:51,0.01,1.96,0.00,20.77,24.51,27.27,14.06,45.82,1018.87,2044.00,2844.52,2576.00,2944.03,600.04,601.94,55.82,0000 0000 0000 0000 000000
2017-07-21 04:57:52,0.01,1.96,0.00,20.79,24.54,27.37,14.02,45.80,1018.68,2044.00,2844.04,2575.96,2944.00,599.81,601.52,55.87,0000 0000 0000 0000 000000
2017-07-21 05:02:53,0.02,1.96,0.00,20.83,24.58,27.39,14.03,45.79,1018.65,2043.99,2843.99,2575.37,2943.96,599.77,601.40,55.93,0000 0000 0000 0000 000000
2017-07-21 05:07:54,0.02,1.96,0.00,20.88,24.61,27.41,14.05,45.77,1018.58,2043.93,2843.76,2575.02,2943.32,600.13,601.63,55.98,0000 0000 0000 0000 000000
2017-07-21 05:12:55,-0.03,1.96,0.00,20.92,24.64,27.41,14.08,45.78,1018.58,2043.55,2843.22,2575.00,2943.03,600.04,601.40,56.03,0000 0000 0000 0000 000000
2017-07-21 05:17:56,-0.03,1.96,0.00,20.97,24.68,27.42,14.02,45.84,1018.59,2043.12,2843.00,2574.95,2942.98,599.99,601.28,56.08,0000 0000 0000 0000 000000
2017-07-21 05:22:57,0.03,1.96,0.00,21.01,24.71,27.47,14.09,45.80,1018.58,2043.02,2842.93,2574.39,2942.66,600.16,601.44,56.13,0000 0000 0000 0000 000000
2017-07-21 05:27:59,0.02,1.96,0.00,21.04,24.75,27.51,14.10,45.81,1018.57,2043.00,2842.32,2574.02,2942.06,600.29,601.40,56.18,0000 0000 0000 0000 000000
2017-07-21 05:33:00,0.00,1.96,0.00,21.10,24.79,27.52,14.06,45.88,1018.57,2043.00,2842.01,2573.99,2942.00,600.17,601.23,56.23,0000 0000 0000 0000 000000
2017-07-21 05:38:01,0.01,1.96,0.00,21.14,24.83,27.56,14.11,45.68,1018.57,2042.99,2841.97,2573.88,2941.78,600.12,601.10,56.28,0000 0000 0000 0000 000000
2017-07-21 05:43:02,0.04,1.97,0.00,21.18,24.86,27.57,14.01,45.77,1018.57,2042.93,2841.29,2573.16,2941.08,599.93,600.75,56.33,0000 0000 0000 0000 000000
2017-07-21 05:48:04,-0.05,1.96,0.00,21.23,24.91,27.60,14.07,45.82,1018.56,2042.54,2841.01,2573.00,2940.99,600.29,601.03,56.38,0000 0000 0000 0000 000000
2017-07-21 05:53:05,-0.02,1.96,0.00,21.28,24.95,27.61,13.94,45.77,1018.51,2042.10,2840.96,2572.95,2940.64,599.67,600.22,56.43,0000 0000 0000 0000 000000
2017-07-21 05:58:06,0.05,1.96,0.00,21.33,24.98,27.66,13.96,45.67,1018.40,2042.01,2840.31,2572.28,2940.03,599.82,600.27,56.48,0000 0000 0000 0000 000000
2017-07-21 06:03:07,0.00,1.97,0.00,21.38,25.02,27.68,13.97,45.87,1018.24,2042.00,2840.00,2572.01,2939.95,600.09,600.39,56.53,0000 0000 0000 0000 000000
2017-07-21 06:08:08,0.02,1.97,0.00,21.42,25.06,27.72,14.06,45.82,1018.12,2041.98,2839.73,2571.90,2939.22,600.04,600.16,56.58,0000 0000 0000 0000 000000
2017-07-21 06:13:09,0.03,1.97,0.00,21.47,25.11,27.76,14.03,45.94,1018.09,2041.91,2839.09,2571.26,2939.00,599.81,599.70,56.63,0000 0000 0000 0000 000000
2017-07-21 06:18:10,-0.05,1.97,0.00,21.52,25.15,27.80,14.02,45.88,1018.09,2041.32,2838.98,2571.00,2938.55,600.20,600.05,56.68,0000 0000 0000 0000 000000
2017-07-21 06:23:12,0.01,1.97,0.00,21.57,25.19,27.83,13.99,45.83,1018.08,2041.03,2838.35,2570.91,2938.02,599.78,599.66,56.73,0000 0000 0000 0000 000000
2017-07-21 06:28:13,0.03,1.97,0.00,21.62,25.24,27.86,14.00,45.77,1018.08,2041.01,2838.00,2570.18,2937.86,600.03,599.69,56.78,0000 0000 0000 0000 000000
2017-07-21 06:33:14,0.03,1.97,0.00,21.67,25.28,27.91,13.97,45.83,1018.08,2040.99,2837.49,2570.00,2937.08,599.92,599.76,56.84,0000 0000 0000 0000 000000
2017-07-21 06:38:15,0.01,1.97,0.00,21.71,25.33,27.93,14.01,45.78,1018.08,2040.93,2837.01,2569.61,2936.95,600.24,599.78,56.89,0000 0000 0000 0000 000000
2017-07-21 06:43:17,-0.00,1.97,0.00,21.77,25.37,27.98,13.97,45.73,1018.08,2040.62,2836.83,2569.04,2936.28,599.58,599.02,56.94,0000 0000 0000 0000 000000
2017-07-21 06:48:18,-0.02,1.97,0.00,21.82,25.42,28.01,13.98,45.67,1018.08,2040.07,2836.09,2568.97,2936.00,600.00,599.26,56.99,0000 0000 0000 0000 000000
2017-07-21 06:53:19,0.04,1.97,0.00,21.87,25.47,28.04,14.00,45.79,1018.08,2040.01,2835.80,2568.43,2935.58,599.88,599.14,57.04,0000 0000 0000 0000 000000
2017-07-21 06:58:20,0.02,1.97,0.00,21.93,25.51,28.10,13.98,45.73,1018.08,2040.00,2835.11,2568.02,2935.03,600.07,599.26,57.09,0000 0000 0000 0000 000000
2017-07-21 07:03:22,0.01,1.97,0.00,21.98,25.56,28.15,13.97,45.73,1018.08,2040.00,2834.92,2567.94,2934.78,600.13,599.09,57.14,0000 0000 0000 0000 000000
2017-07-21 07:08:23,0.04,1.98,0.00,22.02,25.61,28.19,13.97,45.67,1018.08,2039.91,2834.12,2567.13,2934.04,600.17,599.00,57.19,0000 0000 0000 0000 000000
2017-07-21 07:13:24,-0.05,1.97,0.00,22.08,25.66,28.24,13.96,45.64,1018.08,2039.37,2833.86,2566.99,2933.75,600.13,598.80,57.24,0000 0000 0000 0000 000000
2017-07-21 07:18:25,0.03,1.97,0.00,22.12,25.70,28.29,14.00,45.78,1018.08,2039.04,2833.08,2566.43,2933.06,600.22,598.95,57.29,0000 0000 0000 0000 000000
2017-07-21 07:23:27,0.01,1.97,0.00,22.16,25.75,28.33,14.05,45.77,1018.08,2039.00,2832.84,2566.01,2932.82,600.17,598.67,57.34,0000 0000 0000 0000 000000
2017-07-21 07:28:28,0.02,1.98,0.00,22.20,25.80,28.39,13.93,45.81,1018.08,2038.98,2832.07,2565.94,2932.07,599.94,598.44,57.39,0000 0000 0000 0000 000000
2017-07-21 07:33:29,0.02,1.98,0.00,22.25,25.84,28.43,13.90,45.60,1018.00,2038.88,2831.78,2565.19,2931.86,599.37,597.68,57.44,0000 0000 0000 0000 000000
2017-07-21 07:38:31,-0.02,1.98,0.00,22.30,25.89,28.48,14.03,45.73,1017.81,2038.22,2831.03,2564.97,2931.07,600.36,598.39,57.49,0000 0000 0000 0000 000000
2017-07-21 07:43:32,0.03,1.98,0.00,22.35,25.94,28.51,13.94,45.61,1017.68,2038.02,2830.51,2564.33,2930.89,600.05,598.04,57.54,0000 0000 0000 0000 000000
2017-07-21 07:48:33,0.02,1.98,0.00,22.42,25.98,28.56,13.93,45.71,1017.62,2038.00,2830.03,2564.00,2930.11,599.80,597.57,57.59,0000 0000 0000 0000 000000
2017-07-21 07:53:35,0.04,1.98,0.00,22.48,26.03,28.62,13.90,45.71,1017.59,2037.99,2829.51,2563.61,2929.84,600.14,597.77,57.64,0000 0000 0000 0000 000000
2017-07-21 07:58:37,0.02,1.98,0.00,22.53,26.08,28.66,13.92,45.61,1017.59,2037.89,2829.01,2563.02,2929.08,599.81,597.45,57.69,0000 0000 0000 0000 000000
2017-07-21 08:03:38,-0.03,1.98,0.00,22.58,26.12,28.71,13.98,45.59,1017.59,2037.40,2828.57,2562.98,2928.97,600.04,597.55,57.74,0000 0000 0000 0000 000000
2017-07-21 08:08:39,0.03,1.98,0.00,22.63,26.17,28.76,14.00,45.53,1017.59,2037.06,2827.99,2562.32,2928.23,600.40,597.70,57.80,0000 0000 0000 0000 000000
2017-07-21 08:13:41,0.01,1.98,0.00,22.68,26.22,28.80,13.96,45.62,1017.59,2037.00,2827.26,2562.00,2927.99,600.18,597.38,57.85,0000 0000 0000 0000 000000
2017-07-21 08:18:42,0.04,1.98,0.00,22.72,26.26,28.84,13.88,45.61,1017.59,2037.00,2826.98,2561.65,2927.40,599.60,596.82,57.90,0000 0000 0000 0000 000000
2017-07-21 08:23:43,0.01,1.99,0.00,22.76,26.31,28.90,13.98,45.60,1017.55,2036.87,2826.33,2561.02,2926.95,600.20,597.29,57.95,0000 0000 0000 0000 000000
2017-07-21 08:28:45,-0.04,1.98,0.00,22.81,26.36,28.93,13.91,45.52,1017.53,2036.24,2825.99,2560.97,2926.19,599.96,596.80,58.00,0000 0000 0000 0000 000000
2017-07-21 08:33:46,0.06,1.98,0.00,22.85,26.41,28.98,13.85,45.67,1017.58,2036.03,2825.07,2560.22,2925.51,599.54,596.41,58.05,0000 0000 0000 0000 000000
2017-07-21 08:38:47,0.04,1.99,0.00,22.89,26.46,29.03,13.94,45.58,1017.59,2036.00,2824.05,2559.56,2924.99,599.87,596.71,58.10,0000 0000 0000 0000 000000
2017-07-21 08:43:49,0.03,1.99,0.00,22.93,26.50,29.09,13.87,45.64,1017.54,2035.99,2823.70,2559.01,2924.47,599.73,596.54,58.15,0000 0000 0000 0000 000000
2017-07-21 08:48:50,0.01,1.99,0.00,22.96,26.55,29.14,13.92,45.70,1017.56,2035.95,2823.03,2558.99,2924.01,599.68,596.40,58.20,0000 0000 0000 0000 000000
2017-07-21 08:53:51,-0.01,1.99,0.00,22.98,26.59,29.19,14.01,45.66,1017.36,2035.50,2822.50,2558.63,2923.58,600.04,596.72,58.25,0000 0000 0000 0000 000000
2017-07-21 08:58:52,-0.00,1.99,0.00,23.01,26.64,29.25,13.83,45.43,1017.13,2035.08,2822.02,2558.05,2923.02,599.57,595.94,58.30,0000 0000 0000 0000 000000
2017-07-21 09:03:54,0.01,1.99,0.00,23.03,26.68,29.28,13.89,45.54,1017.11,2035.01,2821.63,2557.98,2922.84,600.16,596.45,58.35,0000 0000 0000 0000 000000
2017-07-21 09:08:55,0.05,1.99,0.00,23.06,26.73,29.34,13.91,45.42,1017.11,2035.00,2821.04,2557.42,2922.07,600.02,596.19,58.40,0000 0000 0000 0000 000000
2017-07-21 09:13:56,0.02,1.99,0.00,23.09,26.77,29.36,13.92,45.64,1017.11,2034.98,2820.51,2557.01,2921.88,599.83,596.09,58.45,0000 0000 0000 0000 000000
2017-07-21 09:18:58,-0.02,1.99,0.00,23.14,26.81,29.43,13.87,45.56,1017.09,2034.59,2820.01,2556.75,2921.11,599.80,595.79,58.50,0000 0000 0000 0000 000000
2017-07-21 09:23:59,-0.01,1.99,0.00,23.20,26.86,29.49,13.90,45.70,1016.96,2034.04,2819.78,2556.09,2920.97,600.01,595.89,58.55,0000 0000 0000 0000 000000
2017-07-21 09:29:00,0.03,1.99,0.00,23.29,26.90,29.53,13.89,45.67,1016.86,2034.00,2819.06,2556.00,2920.21,600.09,595.64,58.60,0000 0000 0000 0000 000000
2017-07-21 09:34:01,0.03,1.99,0.00,23.37,26.95,29.53,13.83,45.48,1016.77,2034.00,2818.72,2555.52,2919.99,599.42,594.75,58.65,0000 0000 0000 0000 000000
2017-07-21 09:39:03,0.02,2.00,0.00,23.42,26.99,29.56,13.89,45.63,1016.68,2033.96,2818.03,2555.03,2919.52,599.86,595.13,58.70,0000 0000 0000 0000 000000
2017-07-21 09:44:04,-0.02,2.00,0.00,23.48,27.04,29.59,13.87,45.59,1016.64,2033.66,2817.66,2554.90,2919.01,600.15,595.24,58.76,0000 0000 0000 0000 000000
2017-07-21 09:49:05,0.00,2.00,0.00,23.53,27.08,29.65,13.86,45.52,1016.64,2033.10,2817.04,2554.17,2918.44,600.03,595.12,58.81,0000 0000 0000 0000 000000
2017-07-21 09:54:06,0.01,2.00,0.00,23.57,27.13,29.70,13.93,45.52,1016.63,2033.01,2816.71,2554.00,2918.01,600.05,594.96,58.86,0000 0000 0000 0000 000000
2017-07-21 09:59:08,0.04,2.00,0.00,23.61,27.17,29.74,13.83,45.58,1016.63,2032.99,2816.02,2553.62,2917.62,599.38,594.20,58.91,0000 0000 0000 0000 000000
2017-07-21 10:04:09,0.01,2.00,0.00,23.64,27.22,29.81,13.85,45.48,1016.62,2032.95,2815.90,2553.03,2917.02,600.22,594.92,58.96,0000 0000 0000 0000 000000
2017-07-21 10:09:10,-0.02,2.00,0.00,23.65,27.27,29.84,13.89,45.61,1016.62,2032.58,2815.17,2552.92,2916.74,599.89,594.55,59.01,0000 0000 0000 0000 000000
2017-07-21 10:14:11,0.01,2.00,0.00,23.67,27.31,29.89,13.82,45.58,1016.62,2032.08,2814.88,2552.26,2916.04,599.78,594.43,59.06,0000 0000 0000 0000 000000
2017-07-21 10:19:12,0.01,2.00,0.00,23.70,27.36,29.95,13.89,45.52,1016.61,2032.01,2814.09,2552.00,2915.92,599.78,594.42,59.11,0000 0000 0000 0000 000000
2017-07-21 10:24:13,0.02,2.00,0.00,23.72,27.40,29.99,13.80,45.62,1016.55,2032.00,2813.92,2551.90,2915.22,599.90,594.45,59.16,0000 0000 0000 0000 000000
2017-07-21 10:29:14,0.05,2.00,0.00,23.75,27.44,30.05,13.84,45.54,1016.38,2031.99,2813.11,2551.15,2914.99,599.76,594.06,59.21,0000 0000 0000 0000 000000
2017-07-21 10:34:16,0.00,2.00,0.00,23.77,27.49,30.10,13.87,45.83,1016.16,2031.87,2812.88,2550.99,2914.36,599.65,593.95,59.26,0000 0000 0000 0000 000000
2017-07-21 10:39:17,-0.02,2.00,0.00,23.79,27.53,30.19,13.87,45.78,1016.17,2031.21,2812.09,2550.29,2913.93,599.97,594.19,59.31,0000 0000 0000 0000 000000
2017-07-21 10:44:18,0.02,2.00,0.00,23.81,27.57,30.27,13.88,45.58,1016.19,2031.01,2811.74,2550.00,2913.20,600.20,594.35,59.36,0000 0000 0000 0000 000000
2017-07-21 10:49:20,0.03,2.00,0.00,23.84,27.61,30.33,13.89,45.48,1016.46,2031.00,2811.04,2549.68,2912.98,600.15,594.40,59.41,0000 0000 0000 0000 000000
2017-07-21 10:54:21,0.04,2.01,0.00,23.87,27.65,30.37,13.88,45.46,1016.56,2030.99,2810.53,2549.04,2912.38,600.27,594.27,59.46,0000 0000 0000 0000 000000
2017-07-21 10:59:23,-0.00,2.01,0.00,23.88,27.68,30.43,13.89,45.60,1016.49,2030.89,2810.01,2548.99,2912.01,600.16,594.36,59.51,0000 0000 0000 0000 000000
2017-07-21 11:04:24,-0.00,2.01,0.00,23.91,27.72,30.49,13.89,45.45,1016.35,2030.60,2809.60,2548.59,2911.83,599.97,594.12,59.56,0000 0000 0000 0000 000000
2017-07-21 11:09:25,-0.00,2.01,0.00,23.93,27.76,30.52,13.82,45.48,1016.17,2030.10,2809.02,2548.04,2911.09,599.69,593.67,59.61,0000 0000 0000 0000 000000
2017-07-21 11:14:27,0.01,2.01,0.00,23.97,27.79,30.55,13.84,45.38,1016.17,2030.02,2808.64,2547.98,2910.89,600.22,593.99,59.66,0000 0000 0000 0000 000000
2017-07-21 11:19:28,0.05,2.01,0.00,23.99,27.83,30.60,13.81,45.50,1016.14,2030.00,2808.02,2547.47,2910.14,599.65,593.41,59.72,0000 0000 0000 0000 000000
2017-07-21 11:24:29,0.01,2.01,0.00,24.02,27.86,30.64,13.84,45.43,1016.14,2029.99,2807.72,2547.01,2910.00,599.91,593.56,59.77,0000 0000 0000 0000 000000
2017-07-21 11:29:31,0.02,2.01,0.00,24.05,27.90,30.71,13.84,45.46,1016.14,2029.98,2807.04,2546.98,2909.56,599.88,593.62,59.82,0000 0000 0000 0000 000000
2017-07-21 11:34:32,0.02,2.01,0.00,24.07,27.93,30.73,13.85,45.49,1016.14,2029.88,2806.74,2546.38,2909.01,599.75,593.41,59.87,0000 0000 0000 0000 000000
2017-07-21 11:39:33,-0.03,2.01,0.00,24.10,27.96,30.80,13.81,45.45,1016.14,2029.41,2806.06,2546.01,2908.91,599.90,593.50,59.92,0000 0000 0000 0000 000000
2017-07-21 11:44:35,0.01,2.01,0.00,24.11,28.00,30.82,13.91,45.38,1016.13,2029.14,2805.76,2545.97,2908.18,600.16,593.73,59.97,0000 0000 0000 0000 000000
2017-07-21 11:49:36,0.03,2.01,0.00,24.14,28.03,30.88,13.90,45.48,1016.13,2029.03,2805.05,2545.34,2907.98,600.39,593.80,60.02,0000 0000 0000 0000 000000
2017-07-21 11:54:37,0.02,2.01,0.00,24.16,28.06,30.92,13.89,45.38,1016.13,2029.00,2804.71,2545.01,2907.37,599.97,593.32,60.07,0000 0000 0000 0000 000000
2017-07-21 11:59:38,0.01,1.55,0.00,24.18,28.10,30.94,12.07,39.63,1016.13,2029.45,2980.38,2671.99,3056.71,534.39,526.39,0.00,0000 0000 0000 0000 000002
2017-07-21 12:04:39,0.00,0.00,0.00,24.20,28.13,31.03,13.88,45.43,1016.13,2030.65,3553.32,3087.29,3548.43,600.18,593.53,0.02,0000 0000 0000 0000 000000
2017-07-21 12:09:40,0.00,0.00,0.00,24.21,28.16,31.05,13.87,45.39,1016.13,2030.15,3550.81,3086.20,3547.14,600.15,593.40,0.07,0000 0000 0000 0000 000000
2017-07-21 12:14:41,0.00,0.00,0.00,24.23,28.18,31.05,13.77,45.33,1016.13,2030.03,3549.75,3085.93,3546.22,599.72,593.23,0.12,0000 0000 0000 0000 000000
2017-07-21 12:19:42,0.00,0.00,0.00,24.25,28.21,31.10,13.93,45.37,1016.13,2030.00,3549.00,3085.20,3545.31,600.17,593.43,0.17,0000 0000 0000 0000 000000
2017-07-21 12:24:44,0.01,0.00,0.00,24.27,28.24,31.12,13.88,45.21,1016.13,2030.00,3548.20,3085.00,3544.84,600.12,593.36,0.22,0000 0000 0000 0000 000000
2017-07-21 12:29:45,0.02,0.00,0.00,24.28,28.27,31.16,13.77,45.02,1016.13,2029.99,3547.75,3084.82,3544.05,599.51,592.79,0.27,0000 0000 0000 0000 000000
2017-07-21 12:34:46,0.53,0.02,0.00,24.31,28.30,31.21,13.87,45.00,1016.13,2029.93,3541.34,3075.80,3535.41,600.43,593.48,0.32,0000 0000 0000 0000 000000
2017-07-21 12:39:47,0.71,0.05,0.00,24.32,28.32,31.23,13.86,44.88,1016.12,2029.59,3533.03,3065.09,3523.77,599.73,592.89,0.37,0000 0000 0000 0000 000000
2017-07-21 12:44:48,0.10,0.07,0.00,24.35,28.35,31.27,13.83,44.65,1016.13,2029.18,3526.68,3057.19,3514.67,599.98,593.03,0.42,0000 0000 0000 0000 000000
2017-07-21 12:49:50,0.30,0.08,0.00,24.37,28.37,31.29,13.84,44.81,1016.12,2029.04,3521.45,3054.00,3508.36,600.04,593.01,0.47,0000 0000 0000 0000 000000
2017-07-21 12:54:51,0.98,0.13,0.00,24.40,28.40,31.31,13.91,45.00,1016.12,2029.00,3509.14,3037.32,3490.02,600.22,593.10,0.52,0000 0000 0000 0000 000000